This is the latest recevied weather packets stored in our database for station/object KY4OP-13. If no packets are shown the sender has not sent any weather packets the latest 1 day(s).
| Time | Temp. | Humidity | Pressure | Rain* | Wind** | Luminosity | Snow |
|---|---|---|---|---|---|---|---|
| 1777980743 | 12.78° C | 78% | 1015.2 hPa | 0 mm | 0 m/s | - | - |
| 1777980439 | 12.78° C | 77% | 1015.1 hPa | 0 mm | 0 m/s | - | - |
| 1777980137 | 12.78° C | 77% | 1015.3 hPa | 0 mm | 0 m/s | - | - |
| 1777979832 | 12.78° C | 79% | 1014.9 hPa | 0 mm | 0 m/s | - | - |
| 1777979528 | 12.22° C | 80% | 1015.1 hPa | 0 mm | 0 m/s | - | - |
| 1777979224 | 12.22° C | 81% | 1015.1 hPa | 0 mm | 0 m/s | - | - |
| 1777978922 | 11.67° C | 81% | 1014.9 hPa | 0 mm | 0 m/s | - | - |
| 1777978618 | 11.67° C | 81% | 1014.9 hPa | 0 mm | 0 m/s | - | - |
| 1777978314 | 11.67° C | 81% | 1014.8 hPa | 0 mm | 0 m/s | - | - |
| 1777978011 | 11.67° C | 83% | 1014.8 hPa | 0 mm | 0 m/s | - | - |
| 1777977708 | 11.11° C | 83% | 1014.7 hPa | 0 mm | 0 m/s | - | - |
| 1777977404 | 11.11° C | 83% | 1014.6 hPa | 0 mm | 0 m/s | - | - |
| 1777977102 | 11.11° C | 83% | 1014.4 hPa | 0 mm | 0 m/s | - | - |
| 1777976799 | 11.67° C | 83% | 1014.7 hPa | 0 mm | 0 m/s | - | - |
| 1777976497 | 11.67° C | 82% | 1014.7 hPa | 0 mm | 0 m/s | - | - |
| 1777976196 | 11.67° C | 81% | 1014.4 hPa | 0 mm | 0 m/s | - | - |
| 1777975892 | 12.22° C | 80% | 1014.4 hPa | 0 mm | 0 m/s | - | - |
| 1777975588 | 12.22° C | 79% | 1014.4 hPa | 0 mm | 0 m/s | - | - |
| 1777975285 | 12.78° C | 77% | 1014.4 hPa | 0 mm | 0 m/s | - | - |
| 1777974981 | 12.78° C | 77% | 1014.4 hPa | 0 mm | 0 m/s | - | - |
| 1777974678 | 12.78° C | 77% | 1014.2 hPa | 0 mm | 0 m/s | - | - |
| 1777974374 | 12.78° C | 77% | 1014.3 hPa | 0 mm | 0 m/s | - | - |
| 1777974070 | 12.78° C | 78% | 1014.3 hPa | 0 mm | 0.89 m/s, 234° | - | - |
| 1777973767 | 12.22° C | 79% | 1014.5 hPa | 0 mm | 0 m/s | - | - |
| 1777973464 | 12.22° C | 80% | 1014.3 hPa | 0 mm | 0 m/s | - | - |
* Rain latest hour (hover to see other rain measurements)
** Current wind speed in m/s (hover to see current wind gust speed)